DW0841 Weather Reports


Display with metric or nautical units.
time (UTC)temp
F
wind
direction
speed
MPH
gust
MPH
rain 1hr
in
rain 24hr
in
rain mn
in
humidity
%
barometer
mb
20260507023717 49 0 2.0 3.0 0.00 0.11 0.02 66 1010.5
20260507022717 48 0.0 1.0 0.00 0.11 0.02 67 1010.5
20260507021717 48 203 1.0 1.0 0.00 0.11 0.02 68 1010.5
20260507020717 48 0.0 0.0 0.00 0.11 0.02 69 1010.7
20260507015717 47 225 1.0 2.0 0.00 0.11 0.02 68 1010.7
20260507014717 47 248 3.0 5.0 0.00 0.11 0.02 69 1011.0
20260507013717 47 270 4.0 7.0 0.00 0.11 0.02 69 1011.1
20260507012717 48 248 2.0 3.0 0.00 0.11 0.02 69 1011.3
20260507011717 48 180 2.0 4.0 0.00 0.11 0.02 69 1011.2
20260507010717 47 225 2.0 4.0 0.00 0.11 0.02 69 1011.3
20260507005717 47 203 3.0 7.0 0.00 0.11 0.02 71 1011.4
20260507004737 47 203 4.0 9.0 0.00 0.11 0.02 70 1011.3
20260507003737 47 225 1.0 3.0 0.00 0.11 0.02 71 1011.3
20260507002737 47 180 5.0 7.0 0.00 0.11 0.02 70 1011.2
20260507001717 47 225 2.0 7.0 0.00 0.11 0.02 70 1011.3
20260507000717 47 225 2.0 3.0 0.00 0.11 0.02 69 1011.2
20260506235717 47 180 5.0 10.0 0.00 0.11 0.02 70 1011.2
20260506234717 46 180 3.0 6.0 0.00 0.11 0.02 70 1011.1
20260506233737 46 203 2.0 3.0 0.00 0.11 0.02 70 1011.2
20260506232717 46 225 3.0 6.0 0.00 0.11 0.02 71 1011.3
20260506231737 46 135 6.0 12.0 0.00 0.11 0.02 70 1011.4
20260506230717 46 270 2.0 3.0 0.00 0.11 0.02 72 1011.4
20260506225717 45 203 4.0 7.0 0.00 0.11 0.02 74 1011.4
20260506224717 44 180 3.0 4.0 0.00 0.11 0.02 76 1011.3
20260506223717 44 158 1.0 2.0 0.00 0.11 0.02 77 1011.3
20260506222717 43 158 2.0 5.0 0.00 0.11 0.02 77 1011.1
20260506221717 43 180 2.0 4.0 0.00 0.11 0.02 77 1010.8
20260506220737 43 203 2.0 4.0 0.00 0.11 0.02 77 1010.7
20260506215717 43 158 2.0 4.0 0.00 0.11 0.02 77 1010.6
20260506214717 43 180 6.0 9.0 0.00 0.11 0.02 77 1010.6
20260506213717 43 225 5.0 10.0 0.00 0.11 0.02 78 1010.2
20260506212717 43 338 2.0 3.0 0.00 0.11 0.02 79 1010.2
20260506211717 42 203 4.0 12.0 0.00 0.11 0.02 80 1009.9
20260506210717 42 203 4.0 8.0 0.00 0.11 0.02 80 1010.0
20260506205716 42 293 3.0 7.0 0.00 0.11 0.02 80 1009.7
20260506204737 42 0 2.0 3.0 0.00 0.11 0.02 81 1009.4
20260506203717 42 180 1.0 4.0 0.00 0.11 0.02 81 1009.3
20260506202716 42 225 1.0 2.0 0.00 0.11 0.02 82 1009.1
20260506201717 42 113 2.0 3.0 0.00 0.11 0.02 82 1009.0
20260506200717 42 203 7.0 19.0 0.00 0.11 0.02 83 1008.9
20260506195717 42 158 3.0 5.0 0.00 0.11 0.02 83 1008.9
20260506194716 42 180 4.0 7.0 0.00 0.11 0.02 83 1008.8
20260506193737 42 180 4.0 7.0 0.00 0.11 0.02 84 1008.5
20260506192737 42 203 4.0 9.0 0.00 0.11 0.02 84 1008.1
20260506191716 42 158 1.0 3.0 0.01 0.11 0.02 84 1008.1
20260506190717 42 180 4.0 8.0 0.01 0.11 0.02 84 1008.3
20260506185716 42 113 1.0 3.0 0.01 0.11 0.02 84 1008.1
20260506184718 42 203 4.0 7.0 0.01 0.11 0.02 85 1008.0
20260506183717 42 135 3.0 5.0 0.01 0.11 0.02 84 1007.9
20260506182737 42 180 3.0 9.0 0.01 0.11 0.02 85 1008.0
20260506181716 42 180 6.0 14.0 0.00 0.10 0.02 85 1008.0
20260506180737 42 270 2.0 5.0 0.00 0.10 0.02 85 1007.9
20260506175717 42 225 6.0 9.0 0.00 0.10 0.02 86 1007.7
20260506174717 42 203 7.0 12.0 0.00 0.10 0.02 87 1007.6
20260506173717 42 203 2.0 3.0 0.00 0.10 0.02 88 1007.6
20260506172716 42 203 4.0 7.0 0.00 0.10 0.02 89 1007.8
20260506171716 42 158 1.0 3.0 0.00 0.10 0.02 89 1007.6
20260506170716 42 0.0 1.0 0.00 0.10 0.02 89 1007.4
20260506165716 43 225 1.0 1.0 0.00 0.10 0.02 89 1007.7
20260506164736 43 0.0 2.0 0.01 0.10 0.02 89 1007.6
20260506163717 43 180 1.0 4.0 0.01 0.10 0.02 89 1007.6
20260506162717 43 0.0 1.0 0.01 0.10 0.02 89 1007.6
20260506161717 43 203 1.0 5.0 0.01 0.10 0.02 89 1007.4
20260506160717 43 135 2.0 4.0 0.01 0.10 0.02 89 1007.1
20260506155717 43 270 1.0 1.0 0.01 0.10 0.02 90 1007.0
20260506154718 44 270 1.0 2.0 0.00 0.09 0.01 90 1006.9
20260506153717 44 0.0 1.0 0.00 0.09 0.01 90 1006.9
20260506152717 44 0.0 1.0 0.00 0.09 0.01 90 1006.7
20260506151758 44 158 1.0 3.0 0.00 0.09 0.01 90 1006.8
20260506150717 45 203 3.0 4.0 0.01 0.09 0.01 90 1006.9
20260506145717 45 203 1.0 3.0 0.01 0.09 0.01 90 1006.7
20260506144758 44 180 1.0 3.0 0.01 0.09 0.01 90 1006.6
20260506143718 44 0.0 1.0 0.01 0.09 0.01 91 1006.5
20260506142757 44 0.0 1.0 0.01 0.09 0.01 91 1006.2
20260506141717 43 158 1.0 1.0 0.01 0.09 0.01 91 1005.9
20260506140717 43 23 1.0 2.0 0.00 0.09 0.00 91 1005.7
20260506135717 43 0.0 1.0 0.00 0.09 0.09 91 1005.6
20260506134737 43 45 1.0 2.0 0.00 0.09 0.09 91 1005.5
20260506133717 43 0.0 0.0 0.00 0.09 0.09 91 1005.6
20260506132717 43 23 1.0 2.0 0.00 0.09 0.09 91 1005.5
20260506131717 43 0.0 0.0 0.00 0.09 0.09 91 1005.3
20260506130737 43 248 2.0 2.0 0.00 0.09 0.09 92 1005.1
20260506125717 43 0.0 1.0 0.00 0.09 0.09 91 1005.3
20260506124717 44 0.0 1.0 0.00 0.09 0.09 92 1005.3
20260506123717 44 338 1.0 2.0 0.00 0.09 0.09 91 1005.3
20260506122717 44 0.0 1.0 0.00 0.09 0.09 92 1005.4
20260506121717 45 45 2.0 3.0 0.00 0.09 0.09 92 1005.2
20260506120717 45 68 1.0 2.0 0.00 0.09 0.09 91 1005.4
20260506115717 45 0.0 1.0 0.00 0.09 0.09 91 1005.5
20260506114737 45 68 1.0 2.0 0.00 0.09 0.09 92 1005.6
20260506113717 45 0.0 0.0 0.00 0.09 0.09 91 1005.6
20260506112717 45 0.0 0.0 0.00 0.09 0.09 91 1005.6
20260506111717 45 0.0 2.0 0.00 0.09 0.09 91 1005.6
20260506110737 45 0 1.0 1.0 0.00 0.09 0.09 91 1005.3
20260506105737 45 0.0 0.0 0.00 0.09 0.09 91 1005.2
20260506104717 45 0.0 1.0 0.00 0.09 0.09 91 1005.3
20260506103717 45 0.0 1.0 0.00 0.09 0.09 91 1005.3
20260506102716 45 45 1.0 1.0 0.00 0.09 0.09 91 1005.1
20260506101717 45 0.0 0.0 0.00 0.09 0.09 91 1005.1
20260506100717 45 0.0 0.0 0.00 0.09 0.09 91 1004.8
20260506095717 45 0.0 0.0 0.00 0.09 0.09 91 1004.9
20260506094717 46 0.0 0.0 0.00 0.09 0.09 91 1004.9
20260506093717 46 0.0 0.0 0.00 0.09 0.09 91 1004.9
20260506092717 46 0.0 0.0 0.00 0.09 0.09 91 1005.0
20260506091716 46 0.0 0.0 0.00 0.09 0.09 90 1005.1
20260506090716 46 0.0 0.0 0.00 0.09 0.09 90 1005.0
20260506085717 46 0.0 1.0 0.00 0.09 0.09 90 1004.8
20260506084800 46 0.0 1.0 0.00 0.09 0.09 90 1005.1
20260506083716 46 0.0 0.0 0.02 0.09 0.09 89 1005.1
20260506082717 46 0.0 0.0 0.02 0.09 0.09 89 1005.1
20260506081717 46 248 2.0 4.0 0.03 0.09 0.09 90 1005.1
20260506080717 46 135 1.0 2.0 0.05 0.09 0.09 90 1004.9
20260506072757 48 158 2.0 6.0 0.07 0.07 0.07 89 1004.4
20260506071717 48 0.0 1.0 0.06 0.06 0.06 88 1004.4
20260506070716 48 135 1.0 2.0 0.04 0.04 0.04 88 1004.1
20260506061716 51 180 3.0 5.0 0.00 0.00 0.00 79 1003.8
20260506060717 52 203 6.0 9.0 0.00 0.00 0.00 78 1003.9
20260506050737 58 158 2.0 3.0 0.00 0.00 0.00 71 1003.4
20260506044716 59 225 1.0 2.0 0.00 0.00 0.00 68 1003.5
20260506043717 59 158 1.0 2.0 0.00 0.00 0.00 68 1003.7
20260506042716 60 0.0 1.0 0.00 0.00 0.00 67 1003.8
20260506041716 60 248 2.0 3.0 0.00 0.00 0.00 65 1003.8
20260506040717 62 225 1.0 2.0 0.00 0.00 0.00 62 1003.9
20260506035717 64 180 4.0 7.0 0.00 0.00 0.00 56 1004.0
20260506034737 64 293 2.0 4.0 0.00 0.00 0.00 55 1003.6
20260506033716 63 0.0 2.0 0.00 0.00 0.00 58 1003.9
20260506032717 63 0.0 1.0 0.00 0.00 0.00 61 1004.1
20260506031737 63 248 2.0 4.0 0.00 0.00 0.00 59 1004.1
20260506030736 63 203 2.0 4.0 0.00 0.00 0.00 62 1004.2
20260506025716 62 315 2.0 4.0 0.00 0.00 0.00 64 1004.3
20260506024716 61 293 3.0 6.0 0.00 0.00 0.00 66 1004.5